User: anonymous   Login
Location: Unspecified
(50.1700°N, 6.8600°E)
Time: 09:09:18
(UTC+00:00)
Language:

GRACE-FO 1 - Orbit

View from above orbital plane
View from above orbital plane
View from above satellite
View from above satellite

Ground track
Ground track

The orbit data is extracted from the following two-line orbital elements,

1 43476U 18047A   19317.17067123 +.00000541  00000-0 +22258-4 0    08
2 43476  88.9962 167.0158 0018079  25.4363  55.8418 15.23932265 82137
Epoch (UTC): 13 November 2019 04:05:45
Eccentricity: 0.0018079
inclination: 88.9962°
perigee height: 481 km
apogee height: 506 km
right ascension of ascending node: 167.0158°
argument of perigee: 25.4363°
revolutions per day: 15.23932265
mean anomaly at epoch: 55.8418°
orbit number at epoch: 8213

The dashed part of the orbit path shows where the satellite is in the earth's shadow,  

DLR